Tiempo cada hora Murillo

Hoy, 28 Octubre, Miércoles

Tiempo Temperatura Precipitaciones Viento Presión Humedad
00:00 +9°C° 1.1 mm 1 mps 529 mmHg 94%
01:00 +9°C° 1.1 mm 1 mps 529 mmHg 94%
02:00 +9°C° 0.7 mm 1 mps 529 mmHg 95%
03:00 +9°C° 0.7 mm 1 mps 529 mmHg 95%
04:00 +9°C° 0.7 mm 1 mps 529 mmHg 95%
05:00 +10°C° 1 mm 1 mps 530 mmHg 95%
06:00 +10°C° 1 mm 1 mps 530 mmHg 95%
07:00 +9°C° 1 mm 0 mps 531 mmHg 95%
08:00 +11°C° 0.7 mm 1 mps 531 mmHg 95%
09:00 +11°C° 0.7 mm 1 mps 532 mmHg 95%
10:00 +12°C° 0.7 mm 1 mps 532 mmHg 94%
11:00 +12°C° 0.7 mm 1 mps 532 mmHg 93%
12:00 +12°C° 0.7 mm 1 mps 531 mmHg 92%
13:00 +12°C° 0.7 mm 1 mps 531 mmHg 90%
14:00 +12°C° 0.9 mm 1 mps 530 mmHg 92%
15:00 +12°C° 0.9 mm 1 mps 530 mmHg 94%
16:00 +11°C° 0.9 mm 1 mps 529 mmHg 95%
17:00 +11°C° 0.9 mm 1 mps 529 mmHg 95%
18:00 +10°C° 0.9 mm 1 mps 530 mmHg 95%
19:00 +9°C° 0.9 mm 1 mps 530 mmHg 95%
20:00 +9°C° 0.9 mm 1 mps 530 mmHg 96%
21:00 +9°C° 0.9 mm 1 mps 531 mmHg 97%
22:00 +8°C° 0.9 mm 0 mps 531 mmHg 98%
23:00 +8°C° 2.8 mm 0 mps 531 mmHg 98%

Mañana, 29 Octubre, Jueves

Tiempo Temperatura Precipitaciones Viento Presión Humedad
00:00 +8°C° 2.8 mm 0 mps 530 mmHg 98%
01:00 +8°C° 2.8 mm 0 mps 530 mmHg 99%
02:00 +8°C° 3 mm 0 mps 530 mmHg 99%
03:00 +8°C° 3 mm 0 mps 530 mmHg 99%
04:00 +7°C° 3 mm 0 mps 530 mmHg 99%
05:00 +8°C° 0.7 mm 0 mps 530 mmHg 98%
06:00 +8°C° 0.7 mm 0 mps 531 mmHg 98%
07:00 +8°C° 0.7 mm 0 mps 531 mmHg 97%
08:00 +11°C° 0.1 mm 1 mps 532 mmHg 91%
09:00 +12°C° 0.1 mm 1 mps 533 mmHg 85%
10:00 +14°C° 0.1 mm 1 mps 534 mmHg 79%
11:00 +14°C° 0.6 mm 1 mps 533 mmHg 79%
12:00 +13°C° 0.6 mm 1 mps 532 mmHg 80%
13:00 +13°C° 0.6 mm 1 mps 531 mmHg 81%
14:00 +13°C° 0.4 mm 1 mps 531 mmHg 82%
15:00 +13°C° 0.4 mm 1 mps 531 mmHg 84%
16:00 +12°C° 0.4 mm 0 mps 530 mmHg 85%
17:00 +12°C° 0.3 mm 1 mps 530 mmHg 88%
18:00 +10°C° 0.3 mm 1 mps 530 mmHg 90%
19:00 +9°C° 0.3 mm 1 mps 529 mmHg 93%
20:00 +9°C° 0.1 mm 1 mps 530 mmHg 92%
21:00 +8°C° 0.1 mm 1 mps 530 mmHg 90%
22:00 +8°C° 0.1 mm 1 mps 530 mmHg 89%
23:00 +8°C° 0.1 mm 1 mps 530 mmHg 88%

Pasado mañana, 30 Octubre, Viernes

Tiempo Temperatura Precipitaciones Viento Presión Humedad
00:00 +8°C° 0.1 mm 1 mps 530 mmHg 88%
01:00 +7°C° 0.1 mm 2 mps 529 mmHg 88%
02:00 +8°C° 0.1 mm 1 mps 529 mmHg 87%
03:00 +8°C° 0.1 mm 1 mps 529 mmHg 87%
04:00 +8°C° 0.1 mm 1 mps 530 mmHg 86%
05:00 +8°C° 0 mm 1 mps 530 mmHg 84%
06:00 +8°C° 0 mm 0 mps 531 mmHg 82%
07:00 +9°C° 0 mm 0 mps 532 mmHg 79%
08:00 +11°C° 0.1 mm 1 mps 533 mmHg 77%
09:00 +13°C° 0.1 mm 1 mps 534 mmHg 74%
10:00 +14°C° 0.1 mm 1 mps 534 mmHg 71%
11:00 +14°C° 0.5 mm 1 mps 534 mmHg 75%
12:00 +14°C° 0.5 mm 1 mps 533 mmHg 78%
13:00 +14°C° 0.5 mm 1 mps 532 mmHg 82%
14:00 +14°C° 1 mm 1 mps 532 mmHg 85%
15:00 +13°C° 1 mm 1 mps 531 mmHg 88%
16:00 +12°C° 1 mm 0 mps 531 mmHg 91%
17:00 +12°C° 1.4 mm 1 mps 531 mmHg 93%
18:00 +11°C° 1.4 mm 1 mps 530 mmHg 94%
19:00 +10°C° 1.4 mm 1 mps 530 mmHg 96%
20:00 +10°C° 0.4 mm 1 mps 530 mmHg 95%
21:00 +9°C° 0.4 mm 1 mps 531 mmHg 95%
22:00 +9°C° 0.4 mm 1 mps 531 mmHg 94%
23:00 +9°C° 0.6 mm 1 mps 531 mmHg 95%

31 Octubre, Sábado

Tiempo Temperatura Precipitaciones Viento Presión Humedad
00:00 +9°C° 0.6 mm 1 mps 530 mmHg 96%
01:00 +9°C° 0.6 mm 1 mps 530 mmHg 97%
02:00 +9°C° 2.3 mm 1 mps 530 mmHg 97%
03:00 +9°C° 2.3 mm 1 mps 530 mmHg 98%
04:00 +9°C° 2.3 mm 1 mps 530 mmHg 98%
05:00 +8°C° 2.9 mm 0 mps 531 mmHg 98%
06:00 +8°C° 2.9 mm 0 mps 531 mmHg 98%
07:00 +8°C° 2.9 mm 0 mps 531 mmHg 98%
08:00 +9°C° 2.5 mm 1 mps 532 mmHg 98%
09:00 +10°C° 2.5 mm 1 mps 532 mmHg 98%
10:00 +10°C° 2.5 mm 1 mps 532 mmHg 98%
11:00 +11°C° 1.1 mm 1 mps 532 mmHg 96%
12:00 +11°C° 1.1 mm 1 mps 532 mmHg 93%
13:00 +12°C° 1.1 mm 1 mps 531 mmHg 91%
14:00 +12°C° 0.8 mm 1 mps 531 mmHg 92%
15:00 +12°C° 0.8 mm 1 mps 531 mmHg 93%
16:00 +11°C° 0.8 mm 0 mps 530 mmHg 95%
17:00 +11°C° 0.5 mm 1 mps 530 mmHg 95%
18:00 +10°C° 0.5 mm 1 mps 531 mmHg 96%
19:00 +10°C° 0.5 mm 1 mps 531 mmHg 96%
20:00 +9°C° 0.7 mm 0 mps 531 mmHg 96%
21:00 +8°C° 0.7 mm 0 mps 531 mmHg 96%
22:00 +8°C° 0.7 mm 0 mps 531 mmHg 97%
23:00 +8°C° 4.6 mm 0 mps 531 mmHg 97%

1 Noviembre, Domingo

Tiempo Temperatura Precipitaciones Viento Presión Humedad
00:00 +8°C° 4.6 mm 0 mps 531 mmHg 98%
01:00 +9°C° 4.6 mm 1 mps 530 mmHg 98%
02:00 +8°C° 3.2 mm 1 mps 530 mmHg 98%
03:00 +8°C° 3.2 mm 1 mps 530 mmHg 97%
04:00 +8°C° 3.2 mm 1 mps 530 mmHg 97%
05:00 +8°C° 1.3 mm 1 mps 530 mmHg 96%
06:00 +7°C° 1.3 mm 0 mps 531 mmHg 96%
07:00 +8°C° 1.3 mm 0 mps 531 mmHg 96%
08:00 +8°C° 0.3 mm 0 mps 531 mmHg 95%
09:00 +9°C° 0.3 mm 0 mps 532 mmHg 95%
10:00 +9°C° 0.3 mm 0 mps 532 mmHg 94%
11:00 +11°C° 0.2 mm 1 mps 532 mmHg 91%
12:00 +12°C° 0.2 mm 1 mps 532 mmHg 87%
13:00 +13°C° 0.2 mm 1 mps 532 mmHg 83%
14:00 +12°C° 0.6 mm 1 mps 531 mmHg 87%
15:00 +12°C° 0.6 mm 1 mps 531 mmHg 90%
16:00 +12°C° 0.6 mm 1 mps 530 mmHg 94%
17:00 +11°C° 1 mm 1 mps 530 mmHg 95%
18:00 +10°C° 1 mm 1 mps 530 mmHg 95%
19:00 +9°C° 1 mm 1 mps 530 mmHg 96%
20:00 +9°C° 0.5 mm 1 mps 530 mmHg 95%
21:00 +9°C° 0.5 mm 1 mps 531 mmHg 95%
22:00 +9°C° 0.5 mm 1 mps 531 mmHg 94%
23:00 +9°C° 0.3 mm 1 mps 531 mmHg 95%

2 Noviembre, Lunes

Tiempo Temperatura Precipitaciones Viento Presión Humedad
00:00 +9°C° 0.3 mm 1 mps 530 mmHg 96%
01:00 +8°C° 0.3 mm 1 mps 530 mmHg 96%
02:00 +8°C° 0.4 mm 1 mps 530 mmHg 96%
03:00 +8°C° 0.4 mm 1 mps 530 mmHg 96%
04:00 +8°C° 0.4 mm 1 mps 529 mmHg 96%
05:00 +8°C° 0.1 mm 1 mps 530 mmHg 95%
06:00 +8°C° 0.1 mm 0 mps 531 mmHg 94%
07:00 +8°C° 0.1 mm 0 mps 531 mmHg 94%
08:00 +10°C° 0.2 mm 1 mps 532 mmHg 91%
09:00 +11°C° 0.2 mm 1 mps 533 mmHg 89%
10:00 +13°C° 0.2 mm 1 mps 533 mmHg 87%
11:00 +12°C° 0.3 mm 1 mps 532 mmHg 88%
12:00 +12°C° 0.3 mm 1 mps 532 mmHg 90%
13:00 +12°C° 0.3 mm 1 mps 531 mmHg 91%
14:00 +12°C° 0.2 mm 1 mps 530 mmHg 91%
15:00 +12°C° 0.2 mm 1 mps 530 mmHg 91%
16:00 +12°C° 0.2 mm 1 mps 530 mmHg 91%
17:00 +11°C° 0.2 mm 1 mps 530 mmHg 94%
18:00 +10°C° 0.2 mm 1 mps 530 mmHg 96%
19:00 +10°C° 0.2 mm 1 mps 530 mmHg 98%
20:00 +9°C° 0.3 mm 1 mps 530 mmHg 98%
21:00 +9°C° 0.3 mm 1 mps 530 mmHg 97%
22:00 +8°C° 0.3 mm 0 mps 531 mmHg 97%
23:00 +8°C° 0.4 mm 0 mps 530 mmHg 97%
Mostrar más

Necesitamos Su Consentimiento

Meteoprog y nuestros Proveedores de Servicios pueden almacenar y acceder a sus datos personales como cookies, identificadores de dispositivo u otras tecnologías similares de su dispositivo y procesar dichos datos para personalizar contenido y anuncios, además de ofrecer funciones de redes sociales y analizar el tráfico.

  • Almacenar y/o acceder a información en su dispositivo

    Se puede almacenar o acceder a cookies, identificadores de dispositivo u otra información de su dispositivo para los fines anteriormente indicados.

  • Anuncios y contenido personalizados, medición de anuncios y contenido, percepciones del público, y desarrollo de productos

    Los anuncios y el contenido pueden personalizarse en base a su perfil. Se pueden añadir más datos para personalizar mejor los anuncios y contenidos. Se puede medir el rendimiento de los anuncios y contenidos. Se puede obtener la percepción sobre el público que ha visto los anuncios y contenidos. Dichos datos pueden usarse para desarrollar o mejorar la experiencia del usuario, sistemas y software.

Al hacer clic en ‘Estoy De Acuerdo’ usted permitirá el uso de las cookies, identificadores de dispositivo, balizas web u otras tecnologías similares indicadas. Su configuración puede cambiarse desde el navegador de su dispositivo.

Para ciertos fines, los intereses legítimos pueden ser considerados por encima del consentimiento. Puede leer más sobre ello en nuestra Política de Privacidad y Cookies.